Regional Weather Roundup
Issued by NWS

Home | Current Version | Previous Version | Graphics & Text | Print | Product List | Glossary On
Versions: 1 2 3 4 5 6 7 8 9 10 11 12 13 14 15 16 17 18 19 20 21 22 23 24 25 26 27 28 29 30 31 32 33 34 35 36 37 38 39 40 41 42 43 44 45 46 47 48 49 50
000
ASUS43 KLOT 292108
RWRIL

ILLINOIS REGIONAL WEATHER ROUNDUP
NATIONAL WEATHER SERVICE CHICAGO/ROMEOVILLE IL
400 PM CDT SAT APR 29 2017

NOTE: "FAIR" INDICATES FEW OR NO CLOUDS BELOW 12,000 FEET WITH NO
SIGNIFICANT WEATHER AND/OR OBSTRUCTIONS TO VISIBILITY.

* THESE STATIONS ARE NOT UNDER NWS QUALITY CONTROL. THEY ALSO MAY NOT
  REPORT WEATHER SUCH AS PRECIPITATION OR FOG.

ILZ001-002-007-009-015-016-024-292200-
NORTHWEST ILLINOIS

CITY           SKY/WX    TMP DP  RH WIND       PRES   REMARKS
MOLINE         RAIN      42  39  89 NE15G26   30.05F FOG
STERLING*      LGT RAIN  40  38  93 NE17      30.13S FOG
SAVANNA*       RAIN      41  39  91 E10       30.16R
$$

ILZ003-004-008-010-011-017-018-292200-
NORTH CENTRAL ILLINOIS

CITY           SKY/WX    TMP DP  RH WIND       PRES   REMARKS
ROCKFORD       LGT RAIN  40  35  83 NE14      30.17R FOG
FREEPORT*      RAIN      40  36  87 NE12      30.17R
ROCHELLE*      RAIN      38  37  94 NE18      30.15R WCI  29
DE KALB*       LGT RAIN  38  37  94 NE17      30.14R WCI  29
PERU*          TSTM      39  37  94 NE20G29   30.07F WCI  29
$$

ILZ005-006-012>014-019>023-292200-
NORTHEAST ILLINOIS

CITY           SKY/WX    TMP DP  RH WIND       PRES   REMARKS
CHICAGO-OHARE  LGT RAIN  40  37  89 NE20G26   30.12F FOG
CHICAGO-MIDWAY LGT RAIN  41  39  93 NE23G32   30.10F
AURORA         HVY RAIN  41  38  89 NE15G28   30.12R FOG
LANSING*       CLOUDY    41  41  99 NE10G18   30.10F
JOLIET*        HVY RAIN  41  40  96 NE13G21   30.07F
WAUKEGAN       RAIN      38  36  92 NE17G23   30.16S FOG     WCI  28
DUPAGE AIRPORT LGT RAIN  39  39 100 NE16G22   30.12R FOG     WCI  30
KANKAKEE*      CLOUDY    43  41  92 NE13G25   30.07R
WHEELING       LGT RAIN  38  38 100 NE12G23   30.13F FOG     WCI  30
MORRIS*        LGT RAIN  40  39  94 NE8       30.10R
ROMEOVILLE*    RAIN      39  39 100 NE23G30   30.06F WCI  29
NORTHERLY ISL    N/A     40  37  89 N24         N/A
$$

LMZ740>746-292200-
SOUTHERN LAKE MICHIGAN

STATION/POSITION SKY/WX   TEMP    WIND        PRES    VSBY  WAVE
                          AIR SEA DIR/SP/G                  HT/PER
                          (F)     (DEG/KT/KT) (MB)    (MI)  (FT/S)
SOUTHERN BUOY              39 41   10/ 21/ 25 1021.6          6/ 6
HARRISON CRIB              41      20/ 26/ 28   N/A
BURNHAM HARBOR             40      10/ 20/ 25   N/A
CALUMET HARBOR             41     360/ 17/ 25 1019.2F
BURNS HARBOR               43      40/ 24/ 25 1019.3F
MICHIGAN CITY              42      20/ 23/ 25   N/A
MICHIGAN CITY 6N           42 47                N/A           8/ 6
ST. JOSEPH                 45 49   50/ 14/ 17 1021.3          5/ 6
$$

ILZ025>027-034>036-040-047-049-050-058-095>099-292200-
WEST-CENTRAL ILLINOIS

CITY           SKY/WX    TMP DP  RH WIND       PRES   REMARKS
QUINCY         LGT RAIN  44  43  96 NE23G33   29.88S
GALESBURG*     LGT SNOW  40  40  98 NE22G36   29.97F VSB 1
MACOMB*        LGT SNOW  41  41  99 NE28G36   29.96F VSB 3/4
JACKSONVILLE*  TSTM      46  45  95 N26G44    29.81S
PITTSFIELD*    RAIN      47  47  98 NE13G25   29.84F
$$

ILZ028>032-037-038-041>044-048-051>054-059>061-292200-
CENTRAL ILLINOIS

CITY           SKY/WX    TMP DP  RH WIND       PRES   REMARKS
PONTIAC        CLOUDY    44  44  99 NE26G32   30.01F
BLOOMINGTON    LGT RAIN  45  45 100 NE28G35   29.96F FOG
DECATUR        CLOUDY    56  56 100 NE24      29.86F FOG
PEORIA         TSTM      42  42 100 NE15G31   29.96F FOG
LACON*         TSTM      40  40  99 NE9G17    30.02F
LINCOLN*       CLOUDY    48  48 100 NE21G29   29.87F
SPRINGFIELD    LGT RAIN  51  50  96 NE16G31   29.82F FOG
TAYLORVILLE    CLOUDY    60  60 100 E15G22    29.80F FOG
$$

ILZ033-039-045-046-055>057-062-063-292200-
EAST-CENTRAL ILLINOIS

CITY           SKY/WX    TMP DP  RH WIND       PRES   REMARKS
CHAMPAIGN      CLOUDY    56  54  93 NE21G26   29.93F FOG
RANTOUL*       CLOUDY    55  54  97 NE22      29.96F FOG
MATTOON        CLOUDY    72  67  84 E12       29.86F
PARIS*         CLOUDY    67  66  94 E10       29.92F
$$

ILZ079-100>102-292200-
SOUTHWEST ILLINOIS

CITY           SKY/WX    TMP DP  RH WIND       PRES   REMARKS
ALTON          CLOUDY    72  66  83 E16G23    29.70F
BELLEVILLE     CLOUDY    77  74  92 E12G18    29.73F
CAHOKIA*       CLOUDY    77  69  76 S17G26    29.71F
$$

ILZ064>066-069>071-074>076-080>082-084>086-088>090-092>094-292200-
SOUTH-CENTRAL ILLINOIS

CITY           SKY/WX    TMP DP  RH WIND       PRES   REMARKS
CARBONDALE     MOSUNNY   82  69  64 SE21G33   29.78F HX  85
CAIRO*         MOSUNNY   84  69  59 SE16      29.83F HX  88
EFFINGHAM*     CLOUDY    74  68  80 E16       29.84F
MARION         PTSUNNY   84  70  61 S9G22     29.84F HX  88
MT. VERNON     MOSUNNY   79  71  76 SE13G20   29.81F HX  82
CENTRALIA*     CLOUDY    78  71  78 SE16G24   29.77F HX  81
SALEM*         CLOUDY    78  69  74 SE14G25   29.79F
METROPOLIS*    MOSUNNY   85  67  54 S15G23    29.86F HX  88
$$

ILZ067-068-072-073-078-083-087-091-292200-
SOUTHEAST ILLINOIS

CITY           SKY/WX    TMP DP  RH WIND       PRES   REMARKS
LAWRENCEVILLE  MOSUNNY   80  69  69 SE15      29.89F HX  83
FLORA*         MOSUNNY   78  69  74 SE18      29.84F HX  80
FAIRFIELD*     CLOUDY    79  70  73 SE12G17   29.83F HX  82
HARRISBURG*    CLOUDY    83  72  69 S15G21    29.86F HX  87
ROBINSON*      MOSUNNY   76  65  68 SE13      29.90F
CARMI*         PTSUNNY   82  70  65 S17G24    29.85F HX  86
$$

ABBREVIATIONS USED IN REMARKS
   TC - TEMPERATURE IN CELSIUS
  WCI - WIND CHILL INDEX
   HX - HEAT INDEX
  VSB - VISIBILITY
$$




USA.gov is the U.S. government's official web portal to all federal, state and local government web resources and services.